This is the latest recevied weather packets stored in our database for station/object AG7BI. If no packets are shown the sender has not sent any weather packets the latest 1 day(s).
| Time | Temp. | Humidity | Pressure | Rain* | Wind** | Luminosity | Snow |
|---|---|---|---|---|---|---|---|
| 1778023252 | 15° C | 75% | 1015.8 hPa | 0 mm | 0.89 m/s, 127° | - | - |
| 1778022952 | 15° C | 75% | 1015.7 hPa | 0 mm | 0.89 m/s, 112° | - | - |
| 1778022652 | 15° C | 75% | 1015.8 hPa | 0 mm | 1.34 m/s, 147° | - | - |
| 1778022352 | 15° C | 74% | 1015.8 hPa | 0 mm | 1.34 m/s, 143° | - | - |
| 1778022052 | 15° C | 75% | 1015.7 hPa | 0 mm | 1.34 m/s, 141° | - | - |
| 1778021752 | 15° C | 75% | 1015.9 hPa | 0 mm | 1.34 m/s, 119° | - | - |
| 1778021452 | 15° C | 74% | 1016 hPa | 0 mm | 1.34 m/s, 126° | - | - |
| 1778021152 | 15° C | 74% | 1015.7 hPa | 0 mm | 1.79 m/s, 132° | - | - |
| 1778020852 | 15.56° C | 74% | 1015.9 hPa | 0 mm | 1.34 m/s, 118° | - | - |
| 1778020552 | 15.56° C | 72% | 1016.1 hPa | 0 mm | 1.34 m/s, 147° | - | - |
| 1778020252 | 15.56° C | 73% | 1016.1 hPa | 0 mm | 0.89 m/s, 117° | - | - |
| 1778019952 | 15.56° C | 73% | 1016 hPa | 0 mm | 1.79 m/s, 119° | - | - |
| 1778019652 | 15.56° C | 73% | 1015.9 hPa | 0 mm | 1.79 m/s, 111° | - | - |
| 1778019352 | 15.56° C | 75% | 1016.2 hPa | 0 mm | 0.89 m/s, 124° | - | - |
| 1778019052 | 15.56° C | 74% | 1016.1 hPa | 0 mm | 0.89 m/s, 142° | - | - |
| 1778018752 | 15.56° C | 75% | 1016 hPa | 0 mm | 0.89 m/s, 138° | - | - |
| 1778018452 | 15.56° C | 74% | 1016.2 hPa | 0 mm | 0.89 m/s, 108° | - | - |
| 1778018152 | 15.56° C | 76% | 1016.1 hPa | 0 mm | 0.45 m/s, 157° | - | - |
| 1778017852 | 15.56° C | 75% | 1016.3 hPa | 0 mm | 0.45 m/s, 134° | - | - |
| 1778017552 | 15.56° C | 73% | 1016.4 hPa | 0 mm | 1.79 m/s, 161° | - | - |
| 1778017252 | 15.56° C | 74% | 1016.2 hPa | 0 mm | 1.34 m/s, 115° | - | - |
| 1778016952 | 15.56° C | 74% | 1016.4 hPa | 0 mm | 1.34 m/s, 125° | - | - |
| 1778016652 | 15.56° C | 75% | 1016.3 hPa | 0 mm | 1.34 m/s, 123° | - | - |
| 1778016352 | 15.56° C | 74% | 1016.4 hPa | 0 mm | 0.89 m/s, 109° | - | - |
| 1778016052 | 15° C | 75% | 1016.4 hPa | 0 mm | 1.34 m/s, 106° | - | - |
* Rain latest hour (hover to see other rain measurements)
** Current wind speed in m/s (hover to see current wind gust speed)